STARLINK-35836, 66571

Orbit data source: Space-Track

STARLINK-35836, 66571 is a payload satellite owned by SpaceX/Seattle (US) in LEO that was launched on Fri, 21 Nov 2025 UTC via an FALCON 9 launch vehicle from the Air Force Eastern Test Range (AFETR). Payload-class satellites include a variety of spacecraft equipped with specific instruments for various scientific and technological missions. These include communications satellites like Starlink; space stations such as the ISS; scientific satellites like the Hubble; Earth observation satellites from companies like Planet Labs, Umbra, and HawkEye 360; GPS; miniature CubeSats for education and research; and military/defense satellites.

Loading next visibility...
Identifier
66571, 2025-268Q
Orbit
LEO
Country
Flag of USUS
Related business
Manufacturer
SpaceX/Seattle
Mission
Operational Commercial Communications
Bus & Motor
STARLINK V2MO, Unknown motor
Mass
575 kg wet, ~530 kg dry
Launch date (UTC)
2025-11-21 (7 months ago)
Launch vehicle
FALCON 9
Launch site
Air Force Eastern Test Range (AFETR)
Object type
Payload
Rocket body
Debris
Shape & HBR
Box + 2 Pan, 17.7 m
Radar Cross Section
36.964 m², Large (>1 m²)

Expand to show TLE details & history
Last TLE update: 15 hours ago

TLE from 15 hours ago
0 STARLINK-35836
1 66571U 25268Q   26171.20513841  .00014877  00000-0  54845-3 0  9995
2 66571  43.0017 128.5037 0001644 276.3295  83.7369 15.27615253 33635
Epoch: 2026-06-20T04:55Z
TLE epoch observation values (Epoch: 2026-06-20T04:55:23.958Z)
Latitude
-0.00005°
Longitude
146.23071°
Altitude
482.596 km
Speed
7.626 km/s
True Right ascension
08h 34m 00s
True Declination
0° 00' 00"
Sunlit
Object was in daylight at epoch
Visualization orbit readout
Latitude
Unknown
Longitude
Unknown
Altitude
Unknown
Speed
Unknown
Apparent Right ascension
Unknown
Apparent Declination
Unknown
Sunlit
N/A
Visualization observer readout
Local Sidereal Time
07:16:53
Azimuth
Unknown
Elevation
Unknown
Doppler factor
Unknown
Orbital elements
Apogee altitude
486.017 km
Perigee altitude
483.76 km
Semi-major axis
6,863.025 km
Eccentricity
0.00016
Inclination
43.0017°
RAAN
128.5037°
Arg. of periapsis
276.3295°
True anomaly
83.75563°
Mean anomaly
83.7369°
Eccentric anomaly
83.74626°
Mean motion
3.81742 °/min
Orbital period
94.3 mins
BSTAR
0.00054845
Loading maneuver chart data...
Computing Atmospheric mass density...
Loading historical data...
Loading historical data...
Loading historical data...
Loading historical data...
Loading historical data...
Loading historical data...
Loading historical data...

Documentation

Showing up to 5 results
|